Date,TemperatureHighF,TemperatureAvgF,TemperatureLowF,DewpointHighF,DewpointAvgF,DewpointLowF,HumidityHigh,HumidityAvg,HumidityLow,PressureMaxIn,PressureMinIn,WindSpeedMaxMPH,WindSpeedAvgMPH,GustSpeedMaxMPH,PrecipitationSumIn
2013-1-1,41,34,29,36,30,27,91,87,76,30.80,30.65,4,0,4,0.00
2013-1-2,45,35,30,37,30,26,92,82,57,30.65,30.49,3,0,3,0.00
2013-1-3,45,36,28,34,30,25,91,80,56,30.50,30.40,4,0,4,0.14
2013-1-4,48,42,37,45,40,34,94,90,84,30.62,30.47,3,0,3,0.08
2013-1-5,45,42,40,38,37,35,90,82,74,30.51,30.41,6,0,6,0.10
2013-1-6,46,42,40,42,39,37,92,89,82,30.50,30.30,5,0,5,0.25
2013-1-7,50,47,41,47,44,38,94,89,82,30.47,30.12,14,2,14,0.28
2013-1-8,53,48,42,49,44,40,96,89,82,30.47,30.05,11,2,11,0.22
2013-1-9,50,41,36,48,39,34,94,92,90,30.26,29.97,8,1,8,0.70
2013-1-10,39,36,32,37,34,30,94,93,92,30.42,30.24,2,0,2,0.06
2013-1-11,34,30,27,32,28,25,93,92,91,30.64,30.41,2,0,2,0.00
2013-1-12,35,28,26,30,26,24,92,90,80,30.74,30.62,2,0,2,0.00
2013-1-13,36,30,24,31,26,21,92,88,81,30.79,30.73,1,0,1,0.01
2013-1-14,36,34,32,33,31,29,90,88,86,30.87,30.77,0,0,0,0.00
2013-1-15,43,36,32,37,33,29,92,87,72,31.00,30.87,2,0,2,0.00
2013-1-16,42,34,28,37,31,25,91,87,79,30.98,30.82,4,0,4,0.00
2013-1-17,37,33,29,35,30,27,94,92,89,30.83,30.60,2,0,2,0.00
2013-1-18,36,32,30,34,31,28,94,93,92,30.66,30.56,2,0,2,0.00
2013-1-19,34,32,28,32,30,27,93,92,92,30.70,30.64,2,0,2,0.00
2013-1-20,37,32,29,35,30,27,93,92,90,30.70,30.57,2,0,2,0.00
2013-1-21,35,32,29,33,30,27,94,93,92,30.58,30.44,2,0,2,0.00
2013-1-22,37,33,28,35,31,26,94,93,92,30.45,30.21,3,0,3,0.00
2013-1-23,42,40,36,41,37,33,95,90,77,30.44,30.14,4,0,4,0.29
2013-1-24,46,42,38,41,39,36,93,89,78,30.52,30.36,5,0,5,0.22
2013-1-25,50,45,42,47,43,40,95,93,87,30.37,30.24,5,0,5,0.19
2013-1-26,44,42,40,42,40,38,94,91,88,30.34,30.19,7,0,7,0.37
2013-1-27,43,41,40,40,39,38,93,91,87,30.37,30.30,9,1,9,0.14
2013-1-28,43,41,39,41,39,37,94,93,93,30.40,30.31,5,0,5,0.42
2013-1-29,47,45,42,45,43,40,95,94,94,30.65,30.39,5,0,5,0.82
2013-1-30,48,47,45,47,46,43,96,95,94,30.69,30.63,3,0,3,0.24
2013-1-31,50,48,47,47,46,45,96,94,86,30.70,30.61,7,0,7,0.14
2013-2-1,51,46,42,48,44,40,95,93,84,30.71,30.64,3,0,3,0.01
2013-2-2,43,41,38,41,39,36,95,94,92,30.69,30.56,3,0,3,0.00
2013-2-3,49,44,39,46,42,37,95,92,87,30.61,30.51,5,0,5,0.09
2013-2-4,51,47,44,46,44,42,93,89,78,30.52,30.19,3,0,3,0.00
2013-2-5,50,47,44,45,43,41,92,87,78,30.25,30.15,10,1,10,0.29
2013-2-6,50,45,44,42,41,40,88,86,73,30.35,30.11,9,2,9,0.05
2013-2-7,51,44,37,41,38,33,89,78,64,30.49,30.10,10,1,10,0.13
2013-2-8,45,39,33,40,35,30,91,85,77,30.61,30.50,3,0,3,0.00
2013-2-9,44,42,40,42,39,37,93,90,86,30.64,30.56,2,0,2,0.06
2013-2-10,47,41,35,41,38,33,94,89,77,30.68,30.62,4,0,4,0.01
2013-2-11,47,43,40,42,40,37,92,87,79,30.66,30.63,3,0,3,0.02
2013-2-12,49,46,43,46,44,40,94,90,86,30.71,30.60,9,1,9,0.07
2013-2-13,49,46,44,46,43,42,93,90,86,30.80,30.61,9,0,9,0.09
2013-2-14,49,46,44,45,43,41,92,89,85,30.86,30.80,6,0,6,0.07
2013-2-15,56,46,40,49,42,38,94,87,69,30.85,30.48,5,0,5,0.00
2013-2-16,54,45,39,46,41,37,94,87,65,30.51,30.41,8,1,8,0.29
2013-2-17,47,42,39,41,39,37,93,88,77,30.55,30.42,4,0,4,0.00
2013-2-18,47,42,38,40,37,35,90,85,74,30.42,30.12,6,0,6,0.00
2013-2-20,45,41,38,39,38,34,90,88,77,30.35,30.31,2,0,2,0.03
2013-2-21,44,42,40,40,39,37,92,87,82,30.38,30.31,9,2,9,0.02
2013-2-22,46,43,41,42,39,35,90,85,76,30.36,30.01,13,3,13,0.02
2013-2-23,49,43,40,40,38,35,86,81,67,30.68,30.21,8,1,8,0.00
2013-2-24,48,44,41,40,38,36,84,77,67,30.68,30.26,9,2,9,0.00
2013-2-25,51,44,39,40,37,34,87,76,57,30.61,30.20,12,2,12,0.01
2013-2-26,48,43,36,38,35,32,87,73,57,30.66,30.50,6,1,6,0.01
2013-2-27,50,44,40,43,40,36,92,85,73,30.61,30.51,5,0,5,0.11
2013-2-28,53,47,43,50,44,40,95,92,90,30.64,30.49,8,1,8,0.05
2013-3-1,57,54,52,51,50,49,94,86,79,30.68,30.59,10,2,10,0.00
2013-3-2,58,50,40,49,45,37,90,83,70,30.59,30.38,10,1,10,0.12
2013-3-3,50,41,35,41,36,31,93,83,59,30.61,30.50,5,0,5,0.00
2013-3-4,54,42,31,38,31,26,91,67,41,30.61,30.23,5,0,5,0.00
2013-3-5,52,47,44,38,33,25,80,58,42,30.23,30.03,6,0,6,0.00
2013-3-6,44,42,40,42,39,36,91,87,79,30.21,29.89,6,0,6,0.07
2013-3-7,49,43,38,45,41,36,92,90,85,30.40,30.21,3,0,3,0.00
2013-3-8,53,41,34,44,37,31,93,84,65,30.55,30.38,4,0,4,0.00
2013-3-9,56,42,32,43,36,30,92,79,54,30.80,30.55,6,0,6,0.00
2013-3-10,48,43,37,42,38,33,88,83,77,30.80,30.73,4,0,4,0.00
2013-3-11,52,46,41,45,42,38,92,85,73,30.75,30.47,5,0,5,0.00
2013-3-12,55,53,47,50,48,44,90,84,73,30.47,30.38,13,4,13,0.00
2013-3-13,53,52,51,50,49,47,93,89,84,30.52,30.40,12,2,12,0.00
2013-3-14,54,51,49,51,48,45,93,89,79,30.46,30.33,7,1,7,0.00
2013-3-15,60,53,49,51,48,46,91,83,68,30.52,30.44,7,1,7,0.00
2013-3-16,51,49,40,46,44,35,87,84,72,30.45,30.20,14,3,14,0.00
2013-3-17,51,42,38,37,36,35,89,80,56,30.50,30.29,9,1,9,0.00
2013-3-18,53,44,39,43,37,34,90,78,59,30.55,30.41,15,2,15,0.00
2013-3-19,56,44,35,42,35,28,89,75,34,30.54,29.91,10,2,10,0.00
2013-3-20,52,47,43,48,42,35,95,83,69,30.22,29.71,19,4,19,0.00
2013-3-21,47,40,36,38,35,33,90,83,65,30.53,30.42,9,1,9,0.00
2013-3-22,47,39,35,38,34,30,91,82,62,30.68,30.52,5,0,5,0.01
2013-3-23,52,41,34,36,31,28,84,68,42,30.70,30.61,6,0,6,0.00
2013-3-24,55,44,32,37,31,27,85,62,36,30.61,30.43,5,1,5,0.00
2013-3-25,62,49,35,37,32,27,77,53,30,30.44,30.24,6,0,6,0.00
2013-3-26,62,51,45,43,38,35,75,61,41,30.33,30.26,5,0,5,0.00
2013-3-27,58,50,45,47,42,38,85,73,59,30.29,30.24,4,0,4,0.01
2013-3-28,63,52,44,50,45,41,90,78,59,30.46,30.30,5,0,5,0.03
2013-3-29,66,53,44,49,44,40,88,73,52,30.56,30.46,5,0,5,0.00
2013-3-30,68,53,41,48,43,37,89,70,45,30.57,30.39,5,0,5,0.00
2013-3-31,72,56,42,49,44,38,88,67,40,30.39,30.22,4,0,4,0.00
2013-4-1,63,54,48,51,46,43,88,75,59,30.47,30.27,9,1,9,0.00
2013-4-2,56,53,50,48,47,45,86,80,74,30.51,30.46,7,1,7,0.00
2013-4-3,64,54,46,50,46,43,91,74,53,30.50,30.26,4,0,4,0.00
2013-4-4,56,54,50,53,50,45,92,86,75,30.26,29.95,8,1,8,0.00
2013-4-5,59,53,49,51,49,46,92,85,70,30.18,30.04,12,3,12,0.00
2013-4-6,53,48,45,48,45,42,92,86,75,30.25,30.02,9,2,9,0.00
2013-4-7,47,44,41,44,42,39,93,91,88,30.20,29.80,5,0,5,0.00
2013-4-8,53,47,43,48,44,41,92,89,78,30.58,30.20,4,0,4,0.00
2013-4-9,55,50,44,46,44,41,91,81,67,30.66,30.49,6,0,6,0.00
2013-4-10,58,52,48,52,47,44,93,84,73,30.55,30.25,12,2,12,0.02
2013-4-11,52,48,44,45,42,38,91,82,71,30.61,30.50,7,0,7,0.00
2013-4-12,48,44,41,43,40,37,91,85,73,30.50,29.98,14,1,14,0.00
2013-4-13,49,44,37,44,40,34,91,86,74,30.31,30.08,10,2,10,0.00
2013-4-14,54,46,40,43,39,37,92,79,55,30.32,30.22,6,0,6,0.01
2013-4-15,55,45,40,42,39,36,89,80,57,30.48,30.26,7,0,7,0.00
2013-4-16,55,45,36,44,39,34,92,79,59,30.70,30.49,5,0,5,0.01
2013-4-17,62,49,38,42,38,33,85,66,37,30.76,30.70,7,1,7,0.01
2013-4-18,51,48,45,47,42,38,89,80,72,30.76,30.52,7,1,7,0.00
2013-4-19,54,51,49,52,49,46,93,91,89,30.52,30.37,9,2,9,0.00
2013-4-20,54,49,47,49,46,44,92,88,77,30.59,30.50,8,1,8,0.00
2013-4-21,53,48,43,48,44,39,92,87,72,30.68,30.54,4,0,4,0.00
2013-4-22,61,48,37,44,36,29,92,68,32,30.82,30.67,8,0,8,0.01
2013-4-23,63,50,37,42,36,28,84,61,29,30.74,30.55,5,0,5,0.00
2013-4-24,70,54,40,45,38,32,84,57,28,30.63,30.38,5,0,5,0.00
2013-4-25,72,58,44,43,40,36,76,54,33,30.45,30.35,5,0,5,0.00
2013-4-26,69,57,47,50,46,42,84,67,48,30.56,30.45,6,0,6,0.00
2013-4-27,56,54,50,49,44,38,86,70,53,30.54,30.46,10,2,10,0.00
2013-4-28,59,52,48,49,45,39,90,78,57,30.53,30.25,11,2,11,0.00
2013-4-29,55,48,43,46,41,37,90,79,57,30.48,30.22,9,1,9,0.00
2013-4-30,55,46,38,41,36,30,90,72,39,30.75,30.48,5,0,5,0.00
2013-5-1,64,50,36,39,35,29,84,59,30,30.88,30.75,5,0,5,0.01
2013-5-2,70,55,43,45,40,36,79,58,37,30.86,30.68,5,0,5,0.00
2013-5-3,70,57,44,49,44,38,81,63,45,30.71,30.54,5,0,5,0.00
2013-5-4,79,62,47,52,45,37,82,58,26,30.55,30.32,8,0,8,0.01
2013-5-5,83,66,50,52,46,41,78,53,25,30.32,30.09,5,1,5,0.00
2013-5-6,87,69,53,50,45,41,74,46,22,30.17,30.06,6,1,6,0.00
2013-5-7,72,62,54,54,50,46,82,66,50,30.32,30.14,8,1,8,0.00
2013-5-8,64,58,53,53,50,47,82,76,65,30.46,30.32,6,1,6,0.00
2013-5-9,71,60,51,57,51,47,88,75,55,30.53,30.43,5,0,5,0.00
2013-5-10,80,64,49,58,52,45,87,67,43,30.52,30.42,6,0,6,0.00
2013-5-11,82,68,57,56,51,43,78,57,38,30.49,30.30,8,1,8,0.00
2013-5-12,72,64,59,59,56,51,88,75,56,30.43,30.33,7,1,7,0.10
2013-5-13,65,58,51,57,51,42,88,80,61,30.50,30.24,16,2,16,0.04
2013-5-14,64,55,48,45,43,40,80,64,42,30.54,30.43,8,1,8,0.01
2013-5-15,67,55,46,49,45,40,87,69,45,30.44,30.34,8,0,8,0.00
2013-5-16,70,60,52,54,51,49,89,73,52,30.34,30.17,6,1,6,0.01
2013-5-17,62,57,54,53,50,48,87,77,63,30.37,30.27,9,1,9,0.00
2013-5-18,61,57,53,48,47,45,80,71,61,30.58,30.37,6,1,6,0.00
2013-5-19,64,57,53,52,49,46,83,74,64,30.71,30.58,5,0,5,0.00
2013-5-20,62,53,48,49,46,43,85,76,63,30.67,30.22,3,0,3,0.01
2013-5-21,59,52,48,50,46,43,88,79,65,30.22,30.08,9,1,9,0.00
2013-5-22,53,48,44,47,44,41,90,86,78,30.25,30.17,5,0,5,0.00
2013-5-23,59,50,46,48,45,43,91,82,62,30.33,30.24,8,1,8,0.00
2013-5-24,63,54,47,50,46,43,91,76,51,30.37,30.28,7,1,7,0.00
2013-5-25,66,56,51,48,47,44,83,71,50,30.36,30.28,7,1,7,0.01
2013-5-26,66,57,52,54,50,46,87,78,60,30.30,30.25,7,1,7,0.00
2013-5-27,60,56,52,55,52,48,89,85,80,30.28,30.03,7,1,7,0.00
2013-5-28,63,57,53,52,50,48,89,80,62,30.20,30.08,8,1,8,0.00
2013-5-29,60,54,51,53,49,47,90,84,69,30.28,29.99,10,1,10,0.00
2013-5-30,63,56,50,48,46,43,83,72,53,30.56,30.28,9,2,9,0.00
2013-5-31,68,58,53,50,46,43,81,66,45,30.65,30.56,5,0,5,0.01
2013-6-1,73,61,52,52,48,44,80,64,38,30.56,30.36,5,1,6,0.00
2013-6-2,69,61,54,52,50,46,85,68,49,30.41,30.36,7,0,7,0.01
2013-6-3,72,61,52,54,50,47,84,69,50,30.44,30.37,6,1,6,0.00
2013-6-4,80,65,52,57,51,47,86,63,40,30.44,30.33,6,0,6,0.00
2013-6-5,79,66,55,58,52,45,76,62,45,30.40,30.34,5,0,5,0.00
2013-6-6,81,66,54,58,50,43,83,61,35,30.37,30.32,6,1,6,0.00
2013-6-7,68,62,57,54,47,41,70,59,44,30.47,30.34,8,1,8,0.00
2013-6-8,69,60,54,53,48,46,75,66,54,30.51,30.42,6,1,6,0.00
2013-6-9,71,58,52,50,47,44,79,66,43,30.43,30.34,6,1,6,0.00
2013-6-10,70,57,50,50,45,42,80,66,42,30.36,30.20,5,1,5,0.00
2013-6-11,64,57,53,53,46,44,83,67,52,30.42,30.26,8,2,8,0.08
2013-6-12,68,59,54,49,46,44,76,63,45,30.46,30.41,9,2,9,0.01
2013-6-13,66,59,53,53,50,46,85,72,52,30.53,30.45,6,1,6,0.04
2013-6-14,64,59,55,50,48,47,76,68,56,30.55,30.37,6,1,6,0.00
2013-6-15,78,67,52,56,53,46,86,62,42,30.37,30.22,4,1,4,0.00
2013-6-16,77,65,57,60,54,50,83,69,48,30.41,30.30,6,1,6,0.08
2013-6-17,78,66,57,57,52,48,81,64,40,30.41,30.20,10,1,10,0.03
2013-6-18,73,63,57,53,51,45,85,68,39,30.30,30.19,7,1,7,0.00
2013-6-19,64,60,56,56,52,48,79,73,65,30.33,30.24,5,1,5,0.00
2013-6-20,59,56,54,54,51,49,90,83,70,30.43,30.27,7,1,7,0.00
2013-6-21,66,60,54,56,54,51,91,81,67,30.48,30.42,4,0,4,0.01
2013-6-22,78,62,52,57,52,49,89,73,40,30.44,30.17,6,1,6,0.01
2013-6-23,70,65,60,63,58,54,88,79,70,30.17,29.91,4,0,4,0.06
2013-6-24,66,62,58,60,56,53,91,81,68,30.02,29.90,8,1,8,0.01
2013-6-25,72,61,57,60,55,52,91,82,50,30.18,29.99,11,1,11,0.10
2013-6-26,71,61,56,63,56,53,92,86,62,30.40,30.17,8,0,8,0.03
2013-6-27,70,64,60,64,60,56,90,86,75,30.52,30.36,3,0,3,0.01
2013-6-28,88,76,61,66,62,58,90,67,42,30.51,30.35,6,1,6,0.00
2013-6-29,84,73,65,64,61,59,84,67,45,30.42,30.30,5,1,6,0.00
2013-6-30,92,75,62,68,62,56,84,65,40,30.33,30.17,5,0,5,0.00
2013-7-1,87,73,66,65,60,57,75,65,46,30.34,30.23,3,0,5,0.00
2013-7-2,83,70,63,62,55,50,75,60,35,30.42,30.34,6,1,6,0.00
2013-7-3,79,68,60,56,51,45,65,54,38,30.47,30.35,6,1,6,0.02
2013-7-4,71,64,58,55,52,48,76,65,55,30.44,30.34,7,1,7,0.01
2013-7-5,76,65,57,56,54,50,79,67,49,30.35,30.27,6,1,6,0.00
2013-7-6,79,67,57,59,55,52,85,66,44,30.29,30.17,5,1,5,0.03
2013-7-7,76,67,59,60,56,51,81,68,53,30.26,30.19,8,1,8,0.00
2013-7-8,79,69,59,60,56,52,79,65,50,30.40,30.26,5,1,5,0.02
2013-7-9,86,69,59,61,55,50,83,64,40,30.42,30.32,5,1,5,0.00
2013-7-10,72,64,58,58,53,48,76,67,59,30.37,30.26,7,1,7,0.02
2013-7-11,72,62,57,53,49,45,78,64,47,30.40,30.31,7,1,7,0.00
2013-7-12,68,60,53,54,49,44,76,68,56,30.42,30.33,5,0,5,0.00
2013-7-13,77,66,50,54,49,44,82,58,38,30.51,30.42,5,1,5,0.00
2013-7-14,83,66,53,56,48,44,81,55,32,30.45,30.30,7,1,7,0.00
2013-7-15,81,67,54,55,50,46,79,56,34,30.37,30.22,6,1,6,0.00
2013-7-16,87,72,57,58,53,47,75,53,32,30.23,30.11,5,0,5,0.04
2013-7-17,71,67,62,59,56,54,77,69,61,30.50,30.20,8,2,8,0.02
2013-7-18,79,67,60,60,56,53,79,69,51,30.54,30.43,5,0,5,0.00
2013-7-19,81,67,56,62,56,50,85,70,50,30.49,30.35,6,1,6,0.00
2013-7-20,75,66,58,61,56,52,86,72,58,30.41,30.27,5,0,5,0.00
2013-7-21,76,66,59,61,57,53,84,73,57,30.30,30.22,7,1,7,0.00
2013-7-22,78,67,59,62,57,54,86,72,55,30.38,30.25,6,1,6,0.00
2013-7-23,86,70,58,62,56,52,85,63,35,30.38,30.28,5,0,5,0.00
2013-7-24,86,70,58,58,53,47,79,57,34,30.37,30.31,7,1,7,0.00
2013-7-25,86,70,56,56,50,45,75,53,27,30.42,30.35,5,1,6,0.00
2013-7-26,87,69,56,57,50,41,76,53,28,30.47,30.39,8,1,8,0.04
2013-7-27,79,66,55,55,50,45,76,57,40,30.48,30.31,8,1,8,0.02
2013-7-28,74,64,56,56,52,49,81,67,51,30.35,30.28,8,1,8,0.00
2013-7-29,74,65,58,57,54,50,76,67,52,30.33,30.27,6,1,6,0.00
2013-7-30,77,67,59,58,55,52,80,67,51,30.45,30.33,6,1,6,0.00
2013-7-31,71,64,60,61,57,54,89,79,67,30.44,30.31,4,0,5,0.02
2013-8-1,66,62,58,60,55,54,88,80,70,30.39,30.35,6,1,6,0.01
2013-8-2,62,60,59,58,56,54,92,86,76,30.45,30.38,7,1,7,0.02
2013-8-3,72,64,59,62,59,56,92,83,66,30.45,30.36,5,0,5,0.02
2013-8-4,81,68,58,64,58,54,89,73,53,30.38,30.25,5,0,5,0.00
2013-8-5,85,71,59,62,57,54,86,65,39,30.33,30.24,5,0,5,0.00
2013-8-6,86,71,59,60,54,50,78,57,31,30.32,30.22,5,0,5,0.00
2013-8-7,86,71,59,60,55,52,80,59,35,30.32,30.26,7,0,7,0.00
2013-8-8,82,70,61,61,56,53,79,63,47,30.35,30.26,6,1,6,0.00
2013-8-9,83,71,61,59,56,51,74,60,43,30.28,30.15,6,0,6,0.00
2013-8-10,79,69,62,64,60,57,87,74,59,30.34,30.20,8,1,8,0.00
2013-8-11,78,68,60,60,56,54,82,67,48,30.38,30.30,7,1,7,0.00
2013-8-12,78,68,60,58,55,53,80,66,49,30.39,30.32,6,1,6,0.00
2013-8-13,82,70,60,58,54,51,80,61,38,30.42,30.25,6,0,6,0.00
2013-8-14,84,68,59,60,57,53,82,68,40,30.29,30.22,5,0,5,0.00
2013-8-15,69,67,64,65,63,60,92,86,82,30.32,30.24,3,0,3,0.00
2013-8-16,84,72,64,66,60,47,92,70,30,30.33,30.26,8,1,8,0.00
2013-8-17,78,70,64,61,57,54,74,64,52,30.39,30.32,6,1,6,0.00
2013-8-18,79,67,62,59,56,52,79,68,48,30.44,30.38,7,1,7,0.00
2013-8-19,79,68,60,59,54,50,74,62,48,30.44,30.37,6,1,6,0.00
2013-8-20,78,67,59,57,51,48,73,59,43,30.48,30.38,8,1,8,0.00
2013-8-21,81,67,53,56,52,47,80,59,39,30.42,30.25,6,1,6,0.00
2013-8-22,85,70,57,59,54,49,79,59,37,30.27,30.11,4,0,4,0.00
2013-8-23,74,68,64,58,56,54,75,66,54,30.22,30.14,10,2,10,0.00
2013-8-24,74,66,60,58,55,51,82,67,46,30.24,30.17,6,1,6,0.00
2013-8-25,73,63,55,58,54,49,83,72,56,30.26,30.18,4,0,4,0.00
2013-8-26,76,66,60,60,57,51,83,74,46,30.27,30.17,8,0,8,0.00
2013-8-27,81,69,62,61,58,56,85,70,49,30.27,30.10,6,1,6,0.00
2013-8-28,78,68,60,65,60,56,90,77,59,30.21,30.14,7,0,7,0.00
2013-8-29,74,70,66,66,64,60,86,80,74,30.33,30.17,4,0,4,0.00
2013-8-30,77,68,61,63,58,52,86,71,45,30.47,30.33,6,1,6,0.00
2013-8-31,81,66,55,60,56,51,88,70,45,30.40,30.15,5,0,5,0.00
2013-9-1,81,69,59,62,57,54,87,68,48,30.20,30.11,7,1,7,0.00
2013-9-2,81,70,61,61,57,54,82,65,46,30.27,30.18,5,0,5,0.00
2013-9-3,72,66,62,64,60,56,90,81,67,30.34,30.25,4,0,4,0.00
2013-9-4,73,64,60,73,61,56,99,89,80,30.37,30.30,4,0,4,0.00
2013-9-5,81,67,61,79,66,60,99,94,80,30.37,30.23,5,0,5,0.00
2013-9-6,95,80,66,95,79,66,99,98,89,30.43,30.26,5,1,5,0.00
2013-9-7,94,90,87,94,90,86,99,99,99,30.42,30.42,0,0,0,0.00
2013-9-14,92,51,-26,91,50,-30,99,98,80,30.18,30.05,2,0,2,0.00
2013-9-15,33,-30,-39,32,-33,-45,99,81,70,30.13,30.02,0,0,0,0.00
2013-9-16,-39,-39,-39,-44,-44,-44,76,74,73,30.16,30.12,0,0,0,0.00
2013-9-22,64,59,56,56,53,48,88,79,59,30.05,29.89,14,3,14,0.00
2013-9-23,62,57,52,55,52,49,92,82,72,30.27,30.05,11,3,11,0.00
2013-9-24,65,55,51,52,49,46,92,80,54,30.27,30.14,7,1,7,0.00
2013-9-25,59,53,49,51,48,45,90,85,71,30.34,30.16,4,0,4,0.00
2013-9-26,63,53,45,53,47,42,92,82,64,30.44,30.34,4,0,4,0.00
2013-9-27,57,55,52,53,50,47,88,83,80,30.43,30.15,7,1,7,0.00
2013-9-28,61,56,52,58,53,49,95,90,83,30.16,29.66,13,2,13,0.00
2013-9-29,56,54,52,52,49,48,94,85,78,29.88,29.48,13,3,13,0.00
2013-9-30,57,52,49,51,48,45,91,85,78,30.23,29.74,14,4,14,0.00
2013-10-1,58,52,48,49,46,43,90,82,69,30.42,30.22,8,2,8,0.00
2013-10-2,54,52,49,49,48,46,91,85,80,30.48,30.36,12,1,12,0.00
2013-10-3,56,51,48,51,48,45,93,89,79,30.76,30.48,3,0,3,0.00
2013-10-4,63,51,40,52,45,38,93,82,59,30.78,30.65,3,0,3,0.00
2013-10-5,70,55,44,55,47,41,91,76,45,30.66,30.44,4,0,4,0.00
2013-10-6,76,58,46,56,47,42,91,71,34,30.43,30.19,10,1,10,0.00
2013-10-7,62,56,53,51,49,46,89,78,61,30.32,30.21,10,3,10,0.00
2013-10-8,56,52,46,50,46,43,88,82,73,30.38,30.27,5,1,5,0.00
2013-10-9,58,50,42,49,44,39,92,82,65,30.44,30.26,4,0,4,0.00
2013-10-10,59,53,47,50,48,43,89,82,71,30.38,30.24,4,0,4,0.00
2013-10-11,55,52,50,51,49,46,92,89,86,30.45,30.37,3,0,3,0.00
2013-10-12,58,51,46,52,47,44,93,87,72,30.52,30.37,4,0,4,0.00
2013-10-13,55,48,42,49,45,40,93,88,78,30.67,30.52,5,0,5,0.00
2013-10-14,59,47,38,51,43,35,94,86,69,30.73,30.66,5,0,5,0.00
2013-10-15,56,52,50,51,48,46,88,86,82,30.50,30.48,1,0,1,0.00
2013-10-16,53,50,46,49,47,44,92,89,85,30.51,30.45,2,0,4,0.00
2013-10-17,54,50,46,50,46,44,91,89,82,30.58,30.51,4,0,4,0.00
2013-10-18,61,49,42,54,45,40,94,88,74,30.56,30.45,4,0,4,0.00
2013-10-19,51,47,44,48,45,42,94,92,89,30.50,30.45,3,0,3,0.00
2013-10-20,50,48,46,47,46,45,93,92,90,30.51,30.46,3,0,3,0.00
2013-10-21,52,48,46,49,46,44,94,93,89,30.48,30.40,3,0,3,0.00
2013-10-22,55,49,46,51,47,45,95,93,87,30.43,30.34,4,0,4,0.00
2013-10-23,60,49,42,54,46,41,95,91,79,30.36,30.28,4,0,4,0.00
2013-10-24,52,48,45,50,46,44,94,93,90,30.43,30.33,2,0,2,0.00
2013-10-25,52,49,46,50,47,44,94,92,89,30.62,30.43,4,0,4,0.00
2013-10-26,52,49,46,48,46,44,94,90,83,30.64,30.49,3,0,3,0.00
2013-10-27,53,49,44,51,46,42,94,91,88,30.50,30.21,4,0,4,0.00
2013-10-28,58,47,40,48,41,37,95,79,50,30.26,30.18,5,0,5,0.00
2013-10-29,56,45,36,44,38,33,90,78,57,30.34,30.25,4,0,4,0.00
2013-10-30,56,48,40,47,41,35,85,77,68,30.43,30.33,6,1,6,0.00
2013-10-31,54,52,50,51,47,43,92,85,73,30.56,30.40,7,1,7,0.00
2013-11-1,60,54,50,53,50,48,93,87,74,30.58,30.14,4,0,4,0.00
2013-11-2,54,52,46,51,48,41,93,88,79,30.19,29.80,22,2,22,0.00
2013-11-3,55,46,40,44,40,36,88,82,59,30.41,30.19,6,1,6,0.00
2013-11-4,50,43,35,42,37,32,90,81,63,30.50,30.36,5,0,5,0.00
2013-11-5,54,48,43,49,44,39,94,87,75,30.56,30.31,9,1,9,0.00
2013-11-6,51,48,44,48,45,42,93,91,86,30.62,30.33,4,0,4,0.00
2013-11-7,51,49,48,48,46,45,94,91,83,30.33,30.01,12,2,12,0.00
2013-11-8,54,49,46,46,45,42,91,85,74,30.47,30.28,8,1,8,0.00
2013-11-9,52,46,40,46,43,37,92,88,82,30.46,30.37,3,0,3,0.00
2013-11-10,50,48,46,47,46,43,94,91,88,30.46,30.42,2,0,2,0.00
2013-11-11,59,50,42,52,45,40,94,84,61,30.46,30.30,5,0,5,0.00
2013-11-12,59,52,49,55,49,43,94,87,75,30.67,30.33,11,1,11,0.00
2013-11-13,58,53,50,51,49,46,89,85,76,30.74,30.61,8,1,8,0.00
2013-11-14,50,48,45,48,45,43,94,91,86,30.61,30.36,2,0,2,0.00
2013-11-15,48,45,44,46,43,41,93,92,88,30.37,29.63,14,2,14,0.00
2013-11-16,48,45,41,43,40,38,93,85,71,30.08,29.66,9,2,9,0.00
2013-11-17,52,48,44,47,44,39,90,85,80,30.21,30.07,12,3,12,0.00
2013-11-18,52,50,48,50,47,45,92,91,88,30.21,29.86,7,2,7,0.00
2013-11-19,54,45,38,51,41,28,92,87,65,30.37,29.86,12,1,12,0.00
2013-11-20,44,37,31,33,29,26,87,74,55,30.81,30.37,4,1,4,0.00
2013-11-21,43,34,28,32,27,25,89,77,54,30.97,30.81,5,0,5,0.00
2013-11-22,47,35,28,36,29,25,88,79,58,30.95,30.75,4,0,4,0.00
2013-11-23,51,38,31,40,32,27,88,80,59,30.75,30.50,5,0,5,0.00
2013-11-24,51,40,32,40,34,29,89,81,57,30.56,30.46,5,0,5,0.00
2013-11-25,54,41,34,44,36,30,90,83,68,30.62,30.56,2,0,3,0.00
2013-11-26,50,40,34,42,36,31,90,84,72,30.58,30.40,2,0,2,0.00
2013-11-27,55,46,40,45,40,36,86,80,64,30.41,30.26,4,0,4,0.00
2013-11-28,52,41,34,44,37,31,91,86,74,30.49,30.33,3,0,3,0.00
2013-11-29,47,44,39,45,41,36,91,89,87,30.62,30.48,2,0,2,0.00
2013-11-30,51,49,46,48,45,43,92,87,79,30.64,30.40,7,1,7,0.00
2013-12-1,54,52,43,51,49,39,94,88,83,30.40,30.06,16,4,16,0.00
2013-12-2,46,40,37,39,36,34,91,85,63,30.35,30.12,6,0,6,0.00
2013-12-3,40,35,30,35,29,25,90,78,60,30.62,30.35,5,0,5,0.00
2013-12-4,38,31,26,30,25,23,88,80,61,30.65,30.59,4,0,4,0.00
2013-12-5,34,29,25,25,22,17,85,76,59,30.63,30.50,4,0,4,0.00
2013-12-6,35,28,22,19,14,10,70,57,41,30.54,30.44,6,0,6,0.00
2013-12-7,30,23,18,15,10,8,70,58,40,30.73,30.53,4,0,4,0.00
2013-12-8,34,26,19,18,15,10,72,63,47,30.88,30.72,4,0,4,0.00
2013-12-9,33,29,22,24,20,14,75,70,64,30.88,30.79,1,0,1,0.00
2013-12-10,39,35,32,33,29,24,82,77,70,30.80,30.72,0,0,0,0.00
2013-12-11,40,35,30,34,30,26,87,84,79,30.72,30.48,1,0,1,0.00
2013-12-12,42,37,31,40,34,28,94,88,78,30.47,30.36,3,0,3,0.00
2013-12-13,47,45,41,46,43,40,94,93,93,30.71,30.44,2,0,2,0.00
2013-12-14,49,47,45,44,44,43,93,88,85,30.70,30.64,5,1,5,0.00
2013-12-15,51,49,48,48,46,44,93,90,84,30.76,30.63,8,2,8,0.00
2013-12-16,47,44,41,46,42,39,94,93,91,30.80,30.58,1,0,1,0.00
2013-12-17,45,41,39,43,39,37,94,93,93,30.58,30.42,2,0,2,0.00
2013-12-18,44,41,34,42,39,32,94,92,91,30.46,30.34,1,0,1,0.00
2013-12-19,38,33,30,34,30,28,93,89,82,30.64,30.45,2,0,2,0.00
2013-12-20,41,36,32,39,33,30,95,91,86,30.50,30.03,2,0,2,0.00
2013-12-21,45,42,39,43,40,38,94,93,93,30.47,30.14,2,0,2,0.00
2013-12-22,50,47,44,48,46,43,95,95,94,30.60,30.47,5,1,5,0.00
2013-12-23,53,48,43,48,46,41,94,91,84,30.81,30.43,10,3,10,0.00
2013-12-24,47,41,36,44,39,33,95,92,84,30.92,30.82,4,0,4,0.00
2013-12-25,38,35,33,36,33,31,94,93,92,30.84,30.71,1,0,1,0.00
2013-12-26,44,38,34,42,36,32,94,93,90,30.70,30.51,2,0,2,0.00
2013-12-27,45,40,34,43,38,32,95,94,90,30.67,30.43,1,0,1,0.00
2013-12-28,47,43,39,46,41,37,95,93,91,30.82,30.67,1,0,1,0.00
2013-12-29,43,40,38,41,38,37,94,93,92,30.79,30.61,1,0,1,0.00
2013-12-30,44,40,37,42,39,35,95,94,93,30.62,30.44,2,0,2,0.00
2013-12-31,46,44,41,45,42,39,94,93,90,30.68,30.50,2,0,2,0.00
2014-1-1,44,40,35,42,39,33,95,93,92,30.71,30.56,2,0,2,0.00
2014-1-2,49,45,42,45,43,40,95,91,82,30.55,30.21,7,1,7,0.00